FW8731 Weather Reports


Display with metric or nautical units.
time (UTC)temp
F
wind
direction
speed
MPH
gust
MPH
rain 1hr
in
rain 24hr
in
rain mn
in
humidity
%
barometer
mb
20260902080044 56 0 0.0 1.0 0.00 0.00 0.00 74 1013.7
20260902074555 56 0 0.0 1.0 0.00 0.00 0.00 72 1013.7
20260902073047 56 0 0.0 0.0 0.00 0.00 0.00 72 1013.7
20260902071602 57 0 0.0 0.0 0.00 0.00 0.00 70 1013.6
20260902070044 58 210 0.0 2.0 0.00 0.00 0.00 68 1013.5
20260902064601 59 0 0.0 2.0 0.00 0.00 0.00 67 1013.5
20260902063046 60 209 0.0 3.0 0.00 0.00 0.00 65 1013.5
20260902061553 61 0 0.0 3.0 0.00 0.00 0.00 64 1013.5
20260902060105 61 144 0.0 2.0 0.00 0.00 0.00 62 1013.6
20260902054546 62 143 0.0 3.0 0.00 0.00 0.00 61 1013.6
20260902053046 62 0 0.0 2.0 0.00 0.00 0.00 60 1013.7
20260902051551 63 266 0.0 7.0 0.00 0.00 0.00 60 1013.7
20260902050107 63 0 0.0 4.0 0.00 0.00 0.00 59 1013.8
20260902044605 63 165 1.0 3.0 0.00 0.00 0.00 59 1014.0
20260902043043 63 0 0.0 8.0 0.00 0.00 0.00 58 1014.1
20260902041551 64 206 1.0 6.0 0.00 0.00 0.00 58 1014.0
20260902040054 64 144 2.0 11.0 0.00 0.00 0.00 58 1013.7
20260902034554 64 212 0.0 5.0 0.00 0.00 0.00 57 1013.4
20260902033044 65 219 1.0 5.0 0.00 0.00 0.00 57 1013.2
20260902031547 65 59 3.0 10.0 0.00 0.00 0.00 56 1013.2
20260902030049 66 173 6.0 20.0 0.00 0.00 0.00 56 1012.9
20260902024553 66 183 1.0 8.0 0.00 0.00 0.00 56 1012.6
20260902023044 66 76 0.0 8.0 0.00 0.00 0.00 56 1012.4
20260902021550 66 159 3.0 11.0 0.00 0.00 0.00 56 1012.3
20260902020052 67 123 3.0 9.0 0.00 0.00 0.00 55 1012.4
20260902014547 67 0 1.0 4.0 0.00 0.00 0.00 55 1012.2
20260902013044 67 0 1.0 7.0 0.00 0.00 0.00 55 1012.1
20260902011546 68 148 1.0 7.0 0.00 0.00 0.00 54 1012.0
20260902010054 68 138 2.0 15.0 0.00 0.00 0.00 54 1012.0
20260902004555 68 211 2.0 9.0 0.00 0.00 0.00 52 1012.1
20260902003050 69 0 2.0 15.0 0.00 0.00 0.00 52 1012.1
20260902001546 69 32 3.0 11.0 0.00 0.00 0.00 51 1011.9
20260902000043 70 355 2.0 11.0 0.00 0.00 0.00 51 1011.9
20260901234542 70 317 4.0 14.0 0.00 0.00 0.00 50 1011.8
20260901233046 70 191 6.0 16.0 0.00 0.00 0.00 50 1011.9
20260901231556 71 305 3.0 14.0 0.00 0.00 0.00 49 1011.7
20260901230053 71 190 5.0 11.0 0.00 0.00 0.00 49 1011.5
20260901224554 71 198 3.0 11.0 0.00 0.00 0.00 50 1011.5
20260901223056 71 259 7.0 14.0 0.00 0.00 0.00 49 1011.6
20260901221553 71 30 2.0 10.0 0.00 0.00 0.00 49 1011.5
20260901220053 71 255 5.0 14.0 0.00 0.00 0.00 49 1011.8
20260901214547 73 329 2.0 9.0 0.00 0.00 0.00 48 1011.6
20260901213108 74 294 2.0 6.0 0.00 0.00 0.00 47 1011.5
20260901211555 74 308 2.0 9.0 0.00 0.00 0.00 47 1011.3
20260901210052 74 108 1.0 13.0 0.00 0.00 0.00 46 1011.2
20260901204549 74 344 1.0 11.0 0.00 0.00 0.00 47 1011.2
20260901203057 74 311 2.0 10.0 0.00 0.00 0.00 45 1011.3
20260901201552 72 248 1.0 4.0 0.00 0.00 0.00 48 1011.5
20260901200046 73 199 3.0 9.0 0.00 0.00 0.00 46 1011.7
20260901194546 74 295 2.0 8.0 0.00 0.00 0.00 46 1011.8
20260901193059 72 342 2.0 7.0 0.00 0.00 0.00 48 1012.0
20260901191547 71 194 3.0 10.0 0.00 0.00 0.00 48 1012.1
20260901190107 70 260 1.0 7.0 0.00 0.00 0.00 50 1012.2
20260901184553 70 254 2.0 4.0 0.00 0.00 0.00 51 1012.6
20260901183048 68 215 1.0 6.0 0.00 0.00 0.00 54 1012.8
20260901181546 67 209 2.0 8.0 0.00 0.00 0.00 55 1012.9
20260901180058 66 236 1.0 7.0 0.00 0.00 0.00 57 1013.0
20260901174551 65 0 3.0 7.0 0.00 0.00 0.00 58 1013.1
20260901173048 65 143 3.0 7.0 0.00 0.00 0.00 58 1013.2
20260901171603 64 202 5.0 9.0 0.00 0.00 0.00 60 1013.2
20260901170106 63 137 4.0 10.0 0.00 0.00 0.00 62 1013.3
20260901164556 63 192 3.0 8.0 0.00 0.00 0.00 62 1013.3
20260901163050 62 169 2.0 4.0 0.00 0.00 0.00 65 1013.4
20260901161546 61 48 3.0 9.0 0.00 0.00 0.00 67 1013.4
20260901160057 60 0 0.0 6.0 0.00 0.00 0.00 71 1013.5
20260901154553 59 202 3.0 7.0 0.00 0.00 0.00 72 1013.5
20260901153056 58 176 1.0 7.0 0.00 0.00 0.00 74 1013.4
20260901151550 57 73 1.0 6.0 0.00 0.00 0.00 76 1013.3
20260901150050 55 285 0.0 3.0 0.00 0.00 0.00 79 1013.3
20260901144545 55 231 0.0 1.0 0.00 0.00 0.00 79 1013.2
20260901143102 55 232 1.0 4.0 0.00 0.00 0.00 77 1013.0
20260901141552 54 0 0.0 2.0 0.00 0.00 0.00 79 1012.9
20260901140046 54 0 0.0 3.0 0.00 0.00 0.00 79 1012.8
20260901134600 55 0 0.0 3.0 0.00 0.00 0.00 78 1012.5
20260901133100 55 0 0.0 3.0 0.00 0.00 0.00 76 1012.6
20260901131557 56 0 0.0 4.0 0.00 0.00 0.00 76 1012.4
20260901130046 56 171 2.0 5.0 0.00 0.00 0.00 76 1012.4
20260901124559 57 0 0.0 5.0 0.00 0.00 0.00 75 1012.3
20260901123054 58 0 1.0 8.0 0.00 0.00 0.00 74 1012.3
20260901121552 58 182 2.0 8.0 0.00 0.00 0.00 75 1012.1
20260901120048 57 162 1.0 6.0 0.00 0.00 0.00 74 1012.1
20260901114601 57 0 0.0 3.0 0.00 0.00 0.00 72 1012.1
20260901113043 58 238 1.0 6.0 0.00 0.00 0.00 72 1011.8
20260901111552 58 205 3.0 7.0 0.00 0.00 0.00 72 1011.8
20260901110053 58 185 2.0 5.0 0.00 0.00 0.00 70 1011.7
20260901104544 59 199 0.0 10.0 0.00 0.00 0.00 69 1011.6
20260901103101 59 158 3.0 11.0 0.00 0.00 0.00 69 1011.4
20260901101549 59 213 1.0 6.0 0.00 0.00 0.00 68 1011.4
20260901100048 60 146 2.0 8.0 0.00 0.00 0.00 67 1011.5
20260901094549 60 74 2.0 6.0 0.00 0.00 0.00 66 1011.5
20260901093047 60 162 1.0 10.0 0.00 0.00 0.00 64 1011.4
20260901091557 61 117 1.0 8.0 0.00 0.00 0.00 62 1011.4
20260901090053 61 128 1.0 6.0 0.00 0.00 0.00 61 1011.4
20260901084549 62 133 1.0 6.0 0.00 0.00 0.00 59 1011.5
20260901083046 62 109 1.0 6.0 0.00 0.00 0.00 57 1011.4
20260901081547 63 180 1.0 6.0 0.00 0.00 0.00 57 1011.5